This is the latest recevied weather packets stored in our database for station/object KV4OP. If no packets are shown the sender has not sent any weather packets the latest 10 day(s).
| Time | Temp. | Humidity | Pressure | Rain* | Wind** | Luminosity | Snow |
|---|---|---|---|---|---|---|---|
| 1777663245 | 32.78° C | 49% | 1010.7 hPa | 0 mm | - | - | - |
| 1777662945 | 32.78° C | 49% | 1010.8 hPa | 0 mm | - | - | - |
| 1777662643 | 33.33° C | 45% | 1010.9 hPa | 0 mm | - | - | - |
| 1777662345 | 33.33° C | 47% | 1011 hPa | 0 mm | - | - | - |
| 1777662054 | 33.89° C | 49% | 1011.1 hPa | 0 mm | - | - | - |
| 1777661742 | 33.33° C | 46% | 1011.1 hPa | 0 mm | - | - | - |
| 1777661502 | 33.33° C | 48% | 1011.1 hPa | 0 mm | - | - | - |
| 1777661142 | 32.78° C | 48% | 1011.2 hPa | 0 mm | - | - | - |
| 1777660844 | 32.22° C | 49% | 1011.4 hPa | 0 mm | - | - | - |
| 1777660540 | 32.78° C | 48% | 1011.4 hPa | 0 mm | - | - | - |
| 1777660241 | 32.78° C | 49% | 1011.3 hPa | 0 mm | - | - | - |
| 1777659943 | 32.78° C | 50% | 1011.5 hPa | 0 mm | - | - | - |
| 1777659640 | 32.22° C | 52% | 1011.5 hPa | 0 mm | - | - | - |
| 1777659343 | 32.22° C | 51% | 1011.5 hPa | 0 mm | - | - | - |
| 1777659037 | 32.78° C | 48% | 1011.6 hPa | 0 mm | - | - | - |
| 1777658737 | 32.78° C | 54% | 1011.7 hPa | 0 mm | - | - | - |
| 1777658447 | 33.33° C | 52% | 1011.8 hPa | 0 mm | - | - | - |
| 1777658137 | 33.33° C | 54% | 1012 hPa | 0 mm | - | - | - |
| 1777657836 | 32.78° C | 53% | 1011.8 hPa | 0 mm | - | - | - |
| 1777657542 | 32.22° C | 54% | 1011.8 hPa | 0 mm | - | - | - |
| 1777657235 | 32.22° C | 52% | 1011.8 hPa | 0 mm | - | - | - |
| 1777656934 | 32.22° C | 52% | 1012 hPa | 0 mm | - | - | - |
| 1777656636 | 32.22° C | 52% | 1012 hPa | 0 mm | - | - | - |
| 1777656334 | 32.22° C | 52% | 1012.1 hPa | 0 mm | - | - | - |
| 1777656037 | 32.78° C | 53% | 1012.1 hPa | 0 mm | - | - | - |
* Rain latest hour (hover to see other rain measurements)
** Current wind speed in m/s (hover to see current wind gust speed)